[keps] orb07151.amsat
Ray Hoad
r.hoad at att.net
Thu May 31 19:36:30 PDT 2007
SB KEPS @ AMSAT $ORB07151.O
Orbital Elements 07151.OSCAR
HR AMSAT ORBITAL ELEMENTS FOR OSCAR SATELLITES
FROM WA5QGD FORT WORTH,TX May 31, 2007
Send SUBSCRIBE KEPS/UNSUBSCRIBE KEPS to majordomo at amsat.org only
BID: ORB07151.O
TO ALL RADIO AMATEURS BT
Satellite: AO-07
Catalog number: 07530
Epoch time: 07150.74366769
Element set: 0889
Inclination: 101.5146 deg
RA of node: 189.2642 deg
Eccentricity: 0.0011665
Arg of perigee: 290.5279 deg
Mean anomaly: 069.4536 deg
Mean motion: 12.53572515 rev/day
Decay rate: -2.8e-07 rev/day^2
Epoch rev: 48893
Checksum: 334
Satellite: AO-10
Catalog number: 14129
Epoch time: 07150.57122081
Element set: 0384
Inclination: 026.5185 deg
RA of node: 274.4648 deg
Eccentricity: 0.6061934
Arg of perigee: 026.4374 deg
Mean anomaly: 354.5687 deg
Mean motion: 02.05869007 rev/day
Decay rate: -1.09e-06 rev/day^2
Epoch rev: 18020
Checksum: 296
Satellite: UO-11
Catalog number: 14781
Epoch time: 07151.75686999
Element set: 385
Inclination: 098.1904 deg
RA of node: 174.1423 deg
Eccentricity: 0.0008155
Arg of perigee: 219.1408 deg
Mean anomaly: 140.9233 deg
Mean motion: 14.79554248 rev/day
Decay rate: 1.6e-07 rev/day^2
Epoch rev: 24730
Checksum: 314
Satellite: RS-15
Catalog number: 23439
Epoch time: 07150.86524895
Element set: 0045
Inclination: 064.8192 deg
RA of node: 034.9317 deg
Eccentricity: 0.0159774
Arg of perigee: 193.8633 deg
Mean anomaly: 165.7875 deg
Mean motion: 11.27551716 rev/day
Decay rate: -3.9e-07 rev/day^2
Epoch rev: 51174
Checksum: 336
Satellite: FO-29
Catalog number: 24278
Epoch time: 07151.86083263
Element set: 513
Inclination: 098.5506 deg
RA of node: 113.7007 deg
Eccentricity: 0.0351113
Arg of perigee: 125.5113 deg
Mean anomaly: 237.9310 deg
Mean motion: 13.52930503 rev/day
Decay rate: 6.4e-07 rev/day^2
Epoch rev: 53269
Checksum: 279
Satellite: SO-33
Catalog number: 25509
Epoch time: 07150.85866716
Element set: 0941
Inclination: 031.4332 deg
RA of node: 323.7094 deg
Eccentricity: 0.0355406
Arg of perigee: 275.9036 deg
Mean anomaly: 080.1191 deg
Mean motion: 14.28168151 rev/day
Decay rate: 2.23e-06 rev/day^2
Epoch rev: 44877
Checksum: 304
Satellite: AO-40
Catalog number: 26609
Epoch time: 07150.82096956
Element set: 883
Inclination: 005.4566 deg
RA of node: 143.7083 deg
Eccentricity: 0.7989271
Arg of perigee: 322.4848 deg
Mean anomaly: 002.4008 deg
Mean motion: 01.25587026 rev/day
Decay rate: -7.0e-08 rev/day^2
Epoch rev: 3022
Checksum: 307
Satellite: VO-52
Catalog number: 28650
Epoch time: 07151.76235357
Element set: 640
Inclination: 097.8317 deg
RA of node: 222.8457 deg
Eccentricity: 0.0026357
Arg of perigee: 309.1049 deg
Mean anomaly: 050.7861 deg
Mean motion: 14.81318661 rev/day
Decay rate: 2.42e-06 rev/day^2
Epoch rev: 11198
Checksum: 308
Satellite: PO-63
Catalog number: 29712
Epoch time: 07151.81283212
Element set: 411
Inclination: 097.9221 deg
RA of node: 211.1991 deg
Eccentricity: 0.0014246
Arg of perigee: 176.6068 deg
Mean anomaly: 183.5230 deg
Mean motion: 14.79705194 rev/day
Decay rate: 8.54e-06 rev/day^2
Epoch rev: 2091
Checksum: 290
/EX
SB KEPS @ AMSAT $ORB07151.D
Orbital Elements 07151.MICROS
HR AMSAT ORBITAL ELEMENTS FOR THE MICROSATS
FROM WA5QGD FORT WORTH,TX May 31, 2007
Send SUBSCRIBE KEPS/UNSUBSCRIBE KEPS to majordomo at amsat.org only
BID: ORB07151.D
TO ALL RADIO AMATEURS BT
Satellite: AO-16
Catalog number: 20439
Epoch time: 07150.89902804
Element set: 0048
Inclination: 098.1945 deg
RA of node: 146.4082 deg
Eccentricity: 0.0009882
Arg of perigee: 238.4008 deg
Mean anomaly: 121.6205 deg
Mean motion: 14.31760997 rev/day
Decay rate: 7.0e-08 rev/day^2
Epoch rev: 90607
Checksum: 308
Satellite: LO-19
Catalog number: 20442
Epoch time: 07150.94038313
Element set: 0974
Inclination: 098.1798 deg
RA of node: 155.8221 deg
Eccentricity: 0.0010823
Arg of perigee: 236.5802 deg
Mean anomaly: 123.4331 deg
Mean motion: 14.32001872 rev/day
Decay rate: 5.0e-07 rev/day^2
Epoch rev: 90622
Checksum: 272
Satellite: AO-27
Catalog number: 22825
Epoch time: 07150.90586782
Element set: 0697
Inclination: 098.3283 deg
RA of node: 121.5411 deg
Eccentricity: 0.0008113
Arg of perigee: 320.8991 deg
Mean anomaly: 039.1605 deg
Mean motion: 14.29209532 rev/day
Decay rate: -1.7e-07 rev/day^2
Epoch rev: 71302
Checksum: 295
Satellite: IO-26
Catalog number: 22826
Epoch time: 07151.44614137
Element set: 393
Inclination: 098.3226 deg
RA of node: 123.1370 deg
Eccentricity: 0.0008456
Arg of perigee: 315.8103 deg
Mean anomaly: 044.2404 deg
Mean motion: 14.29455809 rev/day
Decay rate: 1.2e-07 rev/day^2
Epoch rev: 71318
Checksum: 277
Satellite: PO-28
Catalog number: 22829
Epoch time: 07150.92058784
Element set: 0672
Inclination: 098.3105 deg
RA of node: 123.8023 deg
Eccentricity: 0.0008911
Arg of perigee: 287.9457 deg
Mean anomaly: 072.0745 deg
Mean motion: 14.30155789 rev/day
Decay rate: -.00000000 rev/day^2
Epoch rev: 71334
Checksum: 300
Satellite: GO-32
Catalog number: 25397
Epoch time: 07150.65347958
Element set: 0313
Inclination: 098.4150 deg
RA of node: 198.6336 deg
Eccentricity: 0.0000404
Arg of perigee: 322.4424 deg
Mean anomaly: 037.6729 deg
Mean motion: 14.23126221 rev/day
Decay rate: 4.0e-07 rev/day^2
Epoch rev: 46166
Checksum: 286
Satellite: MO-46
Catalog number: 26548
Epoch time: 07150.72021553
Element set: 0808
Inclination: 064.5570 deg
RA of node: 236.6998 deg
Eccentricity: 0.0017578
Arg of perigee: 199.3067 deg
Mean anomaly: 160.7382 deg
Mean motion: 14.83144121 rev/day
Decay rate: 1.46e-06 rev/day^2
Epoch rev: 36095
Checksum: 322
Satellite: NO-44
Catalog number: 26931
Epoch time: 07150.59686051
Element set: 0600
Inclination: 067.0518 deg
RA of node: 192.8009 deg
Eccentricity: 0.0007535
Arg of perigee: 267.7304 deg
Mean anomaly: 092.2933 deg
Mean motion: 14.29485082 rev/day
Decay rate: -1.17e-06 rev/day^2
Epoch rev: 29558
Checksum: 313
Satellite: SO-50
Catalog number: 27607
Epoch time: 07150.92628245
Element set: 0325
Inclination: 064.5557 deg
RA of node: 137.4407 deg
Eccentricity: 0.0051857
Arg of perigee: 004.7774 deg
Mean anomaly: 355.3819 deg
Mean motion: 14.71261860 rev/day
Decay rate: 1.27e-06 rev/day^2
Epoch rev: 23858
Checksum: 317
Satellite: CO-55
Catalog number: 27844
Epoch time: 07151.05869781
Element set: 39
Inclination: 098.7172 deg
RA of node: 159.5947 deg
Eccentricity: 0.0010378
Arg of perigee: 136.3304 deg
Mean anomaly: 223.8696 deg
Mean motion: 14.20513746 rev/day
Decay rate: 7.4e-07 rev/day^2
Epoch rev: 20304
Checksum: 318
Satellite: CO-57
Catalog number: 27848
Epoch time: 07150.93618987
Element set: 0000
Inclination: 098.7174 deg
RA of node: 158.6760 deg
Eccentricity: 0.0010156
Arg of perigee: 139.6828 deg
Mean anomaly: 220.5101 deg
Mean motion: 14.20332361 rev/day
Decay rate: 5.6e-07 rev/day^2
Epoch rev: 20300
Checksum: 287
Satellite: AO-51
Catalog number: 28375
Epoch time: 07150.71746621
Element set: 0829
Inclination: 098.1135 deg
RA of node: 190.9352 deg
Eccentricity: 0.0082973
Arg of perigee: 235.6751 deg
Mean anomaly: 123.6571 deg
Mean motion: 14.40568622 rev/day
Decay rate: 2.8e-07 rev/day^2
Epoch rev: 15320
Checksum: 306
Satellite: CO-56
Catalog number: 28941
Epoch time: 07150.64717072
Element set: 0457
Inclination: 098.1306 deg
RA of node: 209.7905 deg
Eccentricity: 0.0225721
Arg of perigee: 335.5710 deg
Mean anomaly: 023.4846 deg
Mean motion: 15.39535551 rev/day
Decay rate: 1.7978e-04 rev/day^2
Epoch rev: 07073
Checksum: 326
Satellite: HO-59
Catalog number: 29484
Epoch time: 07151.59022734
Element set: 371
Inclination: 098.2848 deg
RA of node: 198.8481 deg
Eccentricity: 0.0209140
Arg of perigee: 325.8427 deg
Mean anomaly: 032.9449 deg
Mean motion: 15.50518961 rev/day
Decay rate: 2.7253e-04 rev/day^2
Epoch rev: 3850
Checksum: 338
Satellite: NO-60
Catalog number: 29661
Epoch time: 07150.05824307
Element set: 300
Inclination: 051.6186 deg
RA of node: 176.5045 deg
Eccentricity: 0.0007204
Arg of perigee: 190.7749 deg
Mean anomaly: 188.7342 deg
Mean motion: 16.52052832 rev/day
Decay rate: 1.3324117e-01 rev/day^2
Epoch rev: 2554
Checksum: 290
Satellite: NO-61
Catalog number: 29664
Epoch time: 07150.90351439
Element set: 0198
Inclination: 051.6338 deg
RA of node: 183.4515 deg
Eccentricity: 0.0011838
Arg of perigee: 284.6590 deg
Mean anomaly: 075.3106 deg
Mean motion: 15.90559939 rev/day
Decay rate: 2.0569e-04 rev/day^2
Epoch rev: 02540
Checksum: 325
Satellite: CP4
Catalog number: 31122
Epoch time: 07151.68406620
Element set: 47
Inclination: 098.0846 deg
RA of node: 225.4935 deg
Eccentricity: 0.0087191
Arg of perigee: 076.8542 deg
Mean anomaly: 284.1991 deg
Mean motion: 14.55006898 rev/day
Decay rate: 5.99e-06 rev/day^2
Epoch rev: 645
Checksum: 320
Satellite: CP3
Catalog number: 31128
Epoch time: 07150.74707939
Element set: 0042
Inclination: 098.0820 deg
RA of node: 224.3718 deg
Eccentricity: 0.0104130
Arg of perigee: 079.9185 deg
Mean anomaly: 281.3754 deg
Mean motion: 14.51835995 rev/day
Decay rate: -4.6e-07 rev/day^2
Epoch rev: 00629
Checksum: 303
Satellite: LIBERT
Catalog number: 31129
Epoch time: 07151.77829019
Element set: 115
Inclination: 098.0818 deg
RA of node: 225.3667 deg
Eccentricity: 0.0103757
Arg of perigee: 076.5546 deg
Mean anomaly: 284.7175 deg
Mean motion: 14.51925335 rev/day
Decay rate: 3.86e-06 rev/day^2
Epoch rev: 642
Checksum: 311
/EX
SB KEPS @ AMSAT $ORB07151.W
Orbital Elements 07151.WEATHER
HR AMSAT ORBITAL ELEMENTS FOR WEATHER SATELLITES
FROM WA5QGD FORT WORTH,TX May 31, 2007
Send SUBSCRIBE KEPS/UNSUBSCRIBE KEPS to majordomo at amsat.org only
BID: ORB07151.W
TO ALL RADIO AMATEURS BT
Satellite: NOAA-10
Catalog number: 16969
Epoch time: 07150.63769010
Element set: 0676
Inclination: 098.7453 deg
RA of node: 167.8095 deg
Eccentricity: 0.0011660
Arg of perigee: 216.0687 deg
Mean anomaly: 143.9692 deg
Mean motion: 14.27326347 rev/day
Decay rate: 1.01e-06 rev/day^2
Epoch rev: 07672
Checksum: 319
